Lincoln, NE

6:36 PM CST on February 26, 2017 (GMT -0600)
Lincoln Municipal

Weather History for KLNK - July, 2013

Change the Weather History Date:

Sunday, July 21, 2013

  Actual Average Record
Temperature  
Mean Temperature 80 °F 78 °F  
Max Temperature 92 °F 89 °F 107 °F (1934)
Min Temperature 68 °F 66 °F 50 °F (1970)
Degree Days  
Heating Degree Days 0 0  
Month to date heating degree days 0 0  
Since 1 June heating degree days 20 16  
Since 1 July heating degree days 0 0  
Cooling Degree Days 15 13  
Month to date cooling degree days 284 266  
Year to date cooling degree days 602 587  
Since 1 June cooling degree days 515 508  
Growing Degree Days 30 (Base 50)    
Moisture  
Dew Point 66 °F    
Average Humidity 64    
Maximum Humidity 87    
Minimum Humidity 41    
Precipitation  
Precipitation 0.00 in 0.10 in 1.70 in (1943)
Month to date precipitation T 2.38  
Year to date precipitation 18.34 17.07  
Snow  
Snow 0.00 in 0.00 in - ()
Month to date snowfall 0.0 0.0  
Since 1 July snowfall 0.0 0.0  
Snow Depth 0.00 in    
Sea Level Pressure  
Sea Level Pressure 29.83 in    
Wind  
Wind Speed 7 mph (WSW)    
Max Wind Speed 16 mph    
Max Gust Speed 20 mph    
Visibility 10 miles    
Events Thunderstorm    
T = Trace of Precipitation, MM = Missing Value Source: NWS Daily Summary

Daily Weather History Graph

Daily Weather History Graph

Search for Another Location

Airport or City:

Trip Planner

Search our weather history database for the weather conditions in past years. The results will help you decide how hot, cold, wet, or windy it might be!

Date:

Astronomy

Jul. 21, 2013 Rise Set
Actual Time 6:13 AM CDT 8:52 PM CDT
Civil Twilight 5:41 AM CDT 9:24 PM CDT
Nautical Twilight 5:01 AM CDT 10:04 PM CDT
Astronomical Twilight 4:16 AM CDT 10:49 PM CDT
Moon 7:51 PM CDT (7/21) 5:00 AM CDT (7/21)
Length of Visible Light 15h 43m
Length of Day
14h 39m
Waxing Gibbous, 98% of the Moon is Illuminated
Jul 21
Waxing Gibbous
Jul 22
Full
Jul 29
Last Quarter
Aug 6
New
Aug 14
First Quarter

Hourly Weather History & Observations

Time (CDT) Temp. Heat Index Dew Point Humidity Pressure Visibility Wind Dir Wind Speed Gust Speed Precip Events Conditions
12:54 AM 71.1 °F - 66.0 °F 84% 29.90 in 10.0 mi SSE 4.6 mph - N/A   Clear
1:54 AM 72.0 °F - 66.0 °F 81% 29.89 in 10.0 mi Calm Calm - N/A   Clear
2:54 AM 71.1 °F - 64.9 °F 81% 29.89 in 10.0 mi Calm Calm - N/A   Overcast
3:02 AM 71.6 °F - 64.4 °F 78% 29.92 in 10.0 mi WNW 3.5 mph - N/A Thunderstorm Thunderstorm
3:17 AM 71.6 °F - 64.4 °F 78% 29.92 in 10.0 mi NW 3.5 mph - N/A   Mostly Cloudy
3:54 AM 70.0 °F - 64.9 °F 84% 29.87 in 10.0 mi Calm Calm - N/A   Clear
4:54 AM 69.1 °F - 64.9 °F 87% 29.83 in 10.0 mi SSE 9.2 mph - N/A   Partly Cloudy
5:54 AM 69.1 °F - 64.0 °F 84% 29.80 in 10.0 mi South 9.2 mph - N/A   Clear
6:54 AM 68.0 °F - 64.9 °F 90% 29.83 in 10.0 mi North 8.1 mph - N/A   Clear
7:54 AM 73.0 °F - 66.0 °F 79% 29.88 in 10.0 mi NNW 6.9 mph - N/A   Clear
8:54 AM 75.0 °F - 66.0 °F 73% 29.88 in 10.0 mi WSW 5.8 mph - N/A   Scattered Clouds
9:54 AM 80.1 °F 82.1 °F 66.0 °F 62% 29.87 in 10.0 mi WSW 10.4 mph - N/A   Scattered Clouds
10:54 AM 82.0 °F 84.1 °F 66.0 °F 58% 29.85 in 10.0 mi SW 10.4 mph - N/A   Clear
11:54 AM 86.0 °F 88.8 °F 66.9 °F 53% 29.83 in 10.0 mi West 9.2 mph - N/A   Clear
12:54 PM 88.0 °F 89.6 °F 64.9 °F 46% 29.82 in 10.0 mi WSW 9.2 mph - N/A   Clear
1:54 PM 89.1 °F 91.3 °F 66.0 °F 46% 29.79 in 10.0 mi WSW 10.4 mph - N/A   Clear
2:54 PM 90.0 °F 92.4 °F 66.0 °F 45% 29.78 in 10.0 mi Variable 6.9 mph - N/A   Partly Cloudy
3:54 PM 91.0 °F 94.3 °F 66.9 °F 45% 29.77 in 10.0 mi WSW 9.2 mph - N/A   Partly Cloudy
4:54 PM 91.0 °F 93.0 °F 64.9 °F 42% 29.76 in 10.0 mi SW 11.5 mph - N/A   Partly Cloudy
5:54 PM 91.0 °F 93.0 °F 64.9 °F 42% 29.75 in 10.0 mi SSW 9.2 mph - N/A   Partly Cloudy
6:54 PM 90.0 °F 92.4 °F 66.0 °F 45% 29.75 in 10.0 mi WSW 9.2 mph - N/A   Partly Cloudy
7:54 PM 87.1 °F 89.9 °F 66.9 °F 51% 29.76 in 10.0 mi SW 6.9 mph - N/A   Partly Cloudy
8:54 PM 82.9 °F 86.5 °F 69.1 °F 63% 29.78 in 10.0 mi South 4.6 mph - N/A   Partly Cloudy
9:54 PM 82.9 °F 85.8 °F 68.0 °F 60% 29.78 in 10.0 mi SW 6.9 mph - N/A   Clear
10:54 PM 80.1 °F 82.7 °F 68.0 °F 67% 29.79 in 10.0 mi WSW 5.8 mph - N/A   Clear
11:54 PM 77.0 °F - 68.0 °F 74% 29.80 in 10.0 mi Calm Calm - N/A   Clear